AG4MR Weather Reports


Display with metric or nautical units.
time (UTC)temp
F
wind
direction
speed
MPH
gust
MPH
rain 1hr
in
rain 24hr
in
rain mn
in
humidity
%
barometer
mb
20260906124548 77 117 0.0 0.0 0.00 0.00 0.00 1 1012.2
20260906123112 76 117 0.0 0.0 0.00 0.00 0.00 1 1012.0
20260906121541 76 117 0.0 0.0 0.00 0.00 0.00 1 1011.9
20260906120033 75 117 0.0 0.0 0.00 0.00 0.00 1 1011.8
20260906114529 75 117 0.0 0.0 0.00 0.00 0.00 1 1011.8
20260906113024 75 117 0.0 0.0 0.00 0.00 0.00 1 1011.9
20260906111527 75 117 0.0 0.0 0.00 0.00 0.00 1 1011.8
20260906110015 76 117 0.0 0.0 0.00 0.00 0.00 1 1011.7
20260906104512 76 117 0.0 0.0 0.00 0.00 0.00 1 1011.6
20260906103007 76 117 0.0 0.0 0.00 0.00 0.00 1 1011.7
20260906101505 76 117 0.0 0.0 0.00 0.00 0.00 1 1011.9
20260906100059 77 117 0.0 0.0 0.00 0.00 0.00 1 1012.0
20260906094605 77 117 0.0 0.0 0.00 0.00 0.00 1 1012.1
20260906093051 77 128 0.0 0.0 0.00 0.00 0.00 1 1012.0
20260906091600 78 128 0.0 0.0 0.00 0.00 0.00 1 1011.6
20260906090044 78 128 0.0 0.0 0.00 0.00 0.00 1 1011.3
20260906084538 78 128 0.0 0.0 0.00 0.00 0.00 1 1011.3
20260906083036 78 128 0.0 0.0 0.00 0.00 0.00 1 1011.1
20260906081528 78 128 0.0 0.0 0.00 0.00 0.00 1 1011.1
20260906080030 78 128 0.0 0.0 0.00 0.00 0.00 1 1011.0
20260906074520 78 128 0.0 0.0 0.00 0.00 0.00 1 1011.2
20260906073015 78 128 0.0 0.0 0.00 0.00 0.00 1 1011.0
20260906071511 78 128 0.0 0.0 0.00 0.00 0.00 1 1011.0
20260906070007 78 128 0.0 0.0 0.00 0.00 0.00 1 1011.0
20260906064502 78 128 0.0 0.0 0.00 0.00 0.00 1 1011.3
20260906063101 78 128 0.0 0.0 0.00 0.00 0.00 1 1011.4
20260906061554 78 128 0.0 0.0 0.00 0.00 0.00 1 1011.4
20260906060052 78 128 0.0 0.0 0.00 0.00 0.00 1 1011.7
20260906054546 79 122 0.0 0.0 0.00 0.00 0.00 1 1011.7
20260906053048 79 122 0.0 1.0 0.00 0.00 0.00 1 1011.7
20260906051536 79 122 0.0 1.0 0.00 0.00 0.00 1 1011.8
20260906050035 80 122 0.0 0.0 0.00 0.00 0.00 1 1012.0
20260906044529 80 122 0.0 0.0 0.00 0.00 0.00 1 1012.0
20260906043030 81 122 0.0 0.0 0.00 0.00 0.00 1 1011.9
20260906041519 81 122 0.0 0.0 0.00 0.00 0.00 1 1011.9
20260906040015 82 122 0.0 0.0 0.00 0.00 0.00 1 1012.0
20260906034510 82 122 0.0 0.0 0.00 0.00 0.00 1 1012.0
20260906033014 82 122 0.0 4.0 0.00 0.00 0.00 1 1011.9
20260906031501 83 121 0.0 2.0 0.00 0.00 0.00 1 1012.0
20260906030057 83 121 0.0 2.0 0.00 0.00 0.00 1 1012.1
20260906024556 83 121 0.0 2.0 0.00 0.00 0.00 1 1012.2
20260906023053 83 122 1.0 4.0 0.00 0.00 0.00 1 1011.9
20260906021544 84 169 0.0 2.0 0.00 0.00 0.00 1 1011.8
20260906020052 84 169 0.0 0.0 0.00 0.00 0.00 1 1011.8
20260906014535 84 100 0.0 2.0 0.00 0.00 0.00 1 1011.3
20260906013040 83 222 0.0 2.0 0.00 0.00 0.00 1 1010.7
20260906011526 83 98 0.0 0.0 0.00 0.00 0.00 1 1010.8
20260906010022 83 98 0.0 0.0 0.00 0.00 0.00 1 1010.4
20260906004518 84 98 0.0 0.0 0.00 0.00 0.00 1 1009.8
20260906003013 85 98 0.0 0.0 0.00 0.00 0.00 1 1009.7
20260906001516 86 98 0.0 0.0 0.00 0.00 0.00 1 1009.8
20260906000013 87 98 0.0 0.0 0.00 0.00 0.00 14 1010.0
20260905234506 88 98 0.0 0.0 0.00 0.00 0.00 17 1010.1
20260905233056 88 97 0.0 0.0 0.00 0.00 0.00 8 1009.9
20260905231554 90 200 0.0 0.0 0.00 0.00 0.00 18 1009.8
20260905230050 91 200 0.0 0.0 0.00 0.00 0.00 27 1009.8
20260905224549 92 200 0.0 0.0 0.00 0.00 0.00 31 1009.7
20260905223038 92 200 0.0 0.0 0.00 0.00 0.00 28 1009.5
20260905221533 93 200 0.0 0.0 0.00 0.00 0.00 42 1009.5
20260905220029 94 200 0.0 0.0 0.00 0.00 0.00 46 1009.6
20260905214525 95 200 0.0 0.0 0.00 0.00 0.00 52 1009.6
20260905213020 95 200 0.0 0.0 0.00 0.00 0.00 52 1009.6
20260905211515 95 200 0.0 0.0 0.00 0.00 0.00 52 1009.8
20260905210011 95 157 0.0 0.0 0.00 0.00 0.00 50 1009.7
20260905204508 96 84 0.0 0.0 0.00 0.00 0.00 51 1009.9
20260905203002 96 119 0.0 0.0 0.00 0.00 0.00 51 1010.1
20260905201559 96 151 0.0 5.0 0.00 0.00 0.00 49 1010.0
20260905200056 96 277 0.0 1.0 0.00 0.00 0.00 48 1010.3
20260905194604 96 197 0.0 2.0 0.00 0.00 0.00 47 1010.5
20260905193045 96 232 0.0 0.0 0.00 0.00 0.00 48 1010.8
20260905191541 97 106 0.0 1.0 0.00 0.00 0.00 49 1011.0
20260905190037 97 267 0.0 0.0 0.00 0.00 0.00 48 1011.2
20260905184550 97 154 0.0 1.0 0.00 0.00 0.00 47 1011.3
20260905183040 97 295 0.0 0.0 0.00 0.00 0.00 49 1011.7
20260905181523 97 194 0.0 1.0 0.00 0.00 0.00 51 1012.0
20260905180026 97 286 0.0 0.0 0.00 0.00 0.00 51 1012.2
20260905174515 97 25 0.0 0.0 0.00 0.00 0.00 52 1012.5
20260905173011 97 155 0.0 4.0 0.00 0.00 0.00 51 1012.6
20260905171508 96 11 0.0 0.0 0.00 0.00 0.00 51 1012.9
20260905170002 96 334 0.0 0.0 0.00 0.00 0.00 49 1013.1
20260905164559 95 113 0.0 1.0 0.00 0.00 0.00 51 1013.3
20260905163058 94 202 0.0 0.0 0.00 0.00 0.00 44 1013.4
20260905161549 93 231 0.0 0.0 0.00 0.00 0.00 40 1013.4
20260905160048 93 200 0.0 0.0 0.00 0.00 0.00 34 1013.5
20260905154605 91 200 0.0 0.0 0.00 0.00 0.00 22 1013.6
20260905153035 90 108 0.0 0.0 0.00 0.00 0.00 16 1013.7
20260905151531 88 19 0.0 0.0 0.00 0.00 0.00 4 1013.8
20260905150027 86 355 0.0 0.0 0.00 0.00 0.00 1 1013.8
20260905144523 84 321 0.0 0.0 0.00 0.00 0.00 1 1013.9
20260905143018 81 321 0.0 0.0 0.00 0.00 0.00 1 1013.9
20260905141513 79 322 0.0 0.0 0.00 0.00 0.00 1 1014.0
20260905140009 77 322 0.0 0.0 0.00 0.00 0.00 1 1014.2
20260905134505 76 322 0.0 0.0 0.00 0.00 0.00 1 1014.2
20260905133101 75 322 0.0 0.0 0.00 0.00 0.00 1 1014.2
20260905131603 74 322 0.0 0.0 0.00 0.00 0.00 1 1014.3
20260905130052 74 322 0.0 0.0 0.00 0.00 0.00 1 1014.4